| time (UTC) | temp F | wind direction | speed MPH | gust MPH | rain 1hr in | rain 24hr in | rain mn in | humidity % | barometer mb |
| 20260904040008 | 77 | 146 | 1.0 | 6.0 | 0.00 | 0.13 | 0.13 | 86 | 1010.8 |
| 20260904035510 | 77 | 136 | 2.0 | 5.0 | 0.00 | 0.13 | 0.13 | 86 | 1010.8 |
| 20260904035009 | 77 | 141 | 1.0 | 5.0 | 0.00 | 0.13 | 0.13 | 85 | 1010.9 |
| 20260904034507 | 77 | 162 | 0.0 | 4.0 | 0.00 | 0.13 | 0.13 | 85 | 1010.8 |
| 20260904034007 | 77 | 137 | 1.0 | 4.0 | 0.00 | 0.13 | 0.13 | 85 | 1010.9 |
| 20260904033511 | 77 | 130 | 0.0 | 4.0 | 0.00 | 0.13 | 0.13 | 85 | 1010.9 |
| 20260904033027 | 78 | 132 | 1.0 | 6.0 | 0.00 | 0.13 | 0.13 | 85 | 1010.9 |
| 20260904032503 | 78 | 138 | 1.0 | 6.0 | 0.00 | 0.13 | 0.13 | 85 | 1010.9 |
| 20260904032012 | 78 | 163 | 1.0 | 4.0 | 0.00 | 0.13 | 0.13 | 85 | 1010.9 |
| 20260904031530 | 78 | 152 | 0.0 | 5.0 | 0.00 | 0.13 | 0.13 | 85 | 1010.9 |
| 20260904031004 | 78 | 107 | 0.0 | 5.0 | 0.00 | 0.13 | 0.13 | 85 | 1011.0 |
| 20260904030502 | 78 | 146 | 1.0 | 5.0 | 0.00 | 0.13 | 0.13 | 84 | 1010.9 |
| 20260904030007 | 78 | 71 | 1.0 | 5.0 | 0.00 | 0.13 | 0.13 | 84 | 1010.8 |
| 20260904025507 | 78 | 120 | 1.0 | 5.0 | 0.00 | 0.13 | 0.13 | 84 | 1010.8 |
| 20260904025007 | 78 | 175 | 2.0 | 5.0 | 0.00 | 0.13 | 0.13 | 84 | 1010.9 |
| 20260904024512 | 78 | 108 | 2.0 | 5.0 | 0.00 | 0.13 | 0.13 | 83 | 1010.9 |
| 20260904024010 | 78 | 113 | 1.0 | 5.0 | 0.00 | 0.13 | 0.13 | 83 | 1010.9 |
| 20260904023515 | 78 | 156 | 1.0 | 4.0 | 0.00 | 0.13 | 0.13 | 82 | 1010.9 |
| 20260904023018 | 79 | 146 | 1.0 | 4.0 | 0.00 | 0.13 | 0.13 | 83 | 1010.9 |
| 20260904022511 | 79 | 142 | 0.0 | 4.0 | 0.00 | 0.13 | 0.13 | 83 | 1010.8 |
| 20260904022012 | 79 | 126 | 1.0 | 5.0 | 0.00 | 0.13 | 0.13 | 83 | 1010.8 |
| 20260904021512 | 79 | 134 | 1.0 | 7.0 | 0.00 | 0.13 | 0.13 | 82 | 1010.8 |
| 20260904021011 | 79 | 155 | 1.0 | 7.0 | 0.00 | 0.13 | 0.13 | 82 | 1010.8 |
| 20260904020515 | 79 | 144 | 1.0 | 4.0 | 0.00 | 0.13 | 0.13 | 82 | 1010.7 |
| 20260904020040 | 79 | 155 | 0.0 | 4.0 | 0.00 | 0.13 | 0.13 | 82 | 1010.6 |
| 20260904015507 | 79 | 113 | 1.0 | 4.0 | 0.00 | 0.13 | 0.13 | 82 | 1010.3 |
| 20260904015007 | 79 | 127 | 1.0 | 5.0 | 0.00 | 0.13 | 0.13 | 82 | 1010.6 |
| 20260904014511 | 79 | 96 | 1.0 | 7.0 | 0.00 | 0.13 | 0.13 | 82 | 1010.5 |
| 20260904014007 | 79 | 116 | 2.0 | 7.0 | 0.00 | 0.13 | 0.13 | 82 | 1010.4 |
| 20260904013510 | 79 | 152 | 1.0 | 8.0 | 0.00 | 0.13 | 0.13 | 82 | 1010.4 |
| 20260904013015 | 79 | 136 | 2.0 | 8.0 | 0.00 | 0.13 | 0.13 | 82 | 1010.5 |
| 20260904012514 | 79 | 84 | 3.0 | 8.0 | 0.00 | 0.13 | 0.13 | 82 | 1010.6 |
| 20260904012010 | 79 | 175 | 1.0 | 3.0 | 0.00 | 0.13 | 0.13 | 81 | 1010.6 |
| 20260904011519 | 79 | 140 | 0.0 | 5.0 | 0.00 | 0.13 | 0.13 | 81 | 1010.7 |
| 20260904011013 | 79 | 138 | 1.0 | 5.0 | 0.00 | 0.13 | 0.13 | 81 | 1010.7 |
| 20260904010514 | 79 | 133 | 1.0 | 5.0 | 0.00 | 0.13 | 0.13 | 80 | 1010.7 |
| 20260904010016 | 79 | 126 | 1.0 | 5.0 | 0.00 | 0.13 | 0.13 | 80 | 1010.7 |
| 20260904005513 | 80 | 132 | 1.0 | 5.0 | 0.00 | 0.13 | 0.13 | 80 | 1010.7 |
| 20260904005017 | 80 | 154 | 1.0 | 6.0 | 0.00 | 0.13 | 0.13 | 80 | 1010.7 |
| 20260904004513 | 80 | 139 | 1.0 | 6.0 | 0.00 | 0.13 | 0.13 | 79 | 1010.7 |
| 20260904004010 | 80 | 132 | 1.0 | 6.0 | 0.00 | 0.13 | 0.13 | 79 | 1010.5 |
| 20260904003509 | 80 | 129 | 1.0 | 6.0 | 0.00 | 0.13 | 0.13 | 79 | 1010.5 |
| 20260904003014 | 80 | 100 | 2.0 | 7.0 | 0.00 | 0.13 | 0.13 | 78 | 1010.5 |
| 20260904002508 | 80 | 117 | 1.0 | 7.0 | 0.00 | 0.13 | 0.13 | 78 | 1010.5 |
| 20260904002012 | 80 | 115 | 2.0 | 7.0 | 0.00 | 0.13 | 0.13 | 78 | 1010.5 |
| 20260904001519 | 80 | 146 | 2.0 | 8.0 | 0.00 | 0.13 | 0.13 | 77 | 1010.5 |
| 20260904001009 | 81 | 151 | 2.0 | 8.0 | 0.00 | 0.13 | 0.13 | 77 | 1010.4 |
| 20260904000511 | 81 | 125 | 2.0 | 7.0 | 0.00 | 0.13 | 0.13 | 77 | 1010.3 |
| 20260904000024 | 81 | 130 | 2.0 | 7.0 | 0.00 | 0.13 | 0.13 | 77 | 1010.3 |
| 20260903235513 | 81 | 125 | 3.0 | 7.0 | 0.00 | 0.13 | 0.13 | 76 | 1010.2 |
| 20260903235014 | 81 | 121 | 3.0 | 7.0 | 0.00 | 0.13 | 0.13 | 76 | 1010.2 |
| 20260903234527 | 81 | 152 | 2.0 | 8.0 | 0.00 | 0.13 | 0.13 | 75 | 1010.1 |
| 20260903234017 | 81 | 151 | 2.0 | 9.0 | 0.00 | 0.13 | 0.13 | 75 | 1010.1 |
| 20260903233514 | 81 | 137 | 3.0 | 9.0 | 0.00 | 0.13 | 0.13 | 74 | 1010.2 |
| 20260903233018 | 81 | 181 | 4.0 | 9.0 | 0.00 | 0.13 | 0.13 | 74 | 1010.2 |
| 20260903232515 | 82 | 183 | 2.0 | 8.0 | 0.00 | 0.13 | 0.13 | 74 | 1010.2 |
| 20260903232010 | 82 | 142 | 2.0 | 7.0 | 0.00 | 0.13 | 0.13 | 73 | 1010.2 |
| 20260903231517 | 82 | 132 | 2.0 | 8.0 | 0.00 | 0.13 | 0.13 | 73 | 1010.2 |
| 20260903231011 | 82 | 147 | 2.0 | 8.0 | 0.00 | 0.13 | 0.13 | 73 | 1010.3 |
| 20260903230513 | 82 | 148 | 1.0 | 7.0 | 0.00 | 0.13 | 0.13 | 73 | 1010.3 |
| 20260903230033 | 82 | 130 | 2.0 | 7.0 | 0.00 | 0.13 | 0.13 | 72 | 1010.3 |
| 20260903225512 | 82 | 178 | 2.0 | 9.0 | 0.00 | 0.13 | 0.13 | 72 | 1010.3 |
| 20260903225013 | 82 | 157 | 3.0 | 9.0 | 0.00 | 0.13 | 0.13 | 71 | 1010.1 |
| 20260903224527 | 83 | 225 | 2.0 | 8.0 | 0.00 | 0.13 | 0.13 | 71 | 1010.2 |
| 20260903224012 | 83 | 107 | 3.0 | 9.0 | 0.00 | 0.13 | 0.13 | 70 | 1010.2 |
| 20260903223516 | 83 | 141 | 4.0 | 9.0 | 0.00 | 0.13 | 0.13 | 70 | 1010.2 |
| 20260903223039 | 83 | 86 | 3.0 | 9.0 | 0.00 | 0.13 | 0.13 | 70 | 1010.2 |
| 20260903222522 | 83 | 86 | 2.0 | 7.0 | 0.00 | 0.13 | 0.13 | 70 | 1010.2 |
| 20260903222014 | 82 | 161 | 1.0 | 10.0 | 0.00 | 0.13 | 0.13 | 71 | 1010.3 |
| 20260903221536 | 82 | 142 | 3.0 | 10.0 | 0.00 | 0.13 | 0.13 | 70 | 1010.2 |
| 20260903221018 | 82 | 150 | 3.0 | 9.0 | 0.00 | 0.13 | 0.13 | 70 | 1010.1 |
| 20260903220509 | 82 | 125 | 2.0 | 9.0 | 0.00 | 0.13 | 0.13 | 70 | 1010.0 |
| 20260903220025 | 83 | 34 | 3.0 | 9.0 | 0.00 | 0.13 | 0.13 | 69 | 1010.1 |
| 20260903215513 | 83 | 215 | 3.0 | 10.0 | 0.00 | 0.13 | 0.13 | 68 | 1010.2 |
| 20260903215016 | 84 | 136 | 4.0 | 12.0 | 0.00 | 0.13 | 0.13 | 67 | 1010.2 |
| 20260903214523 | 84 | 160 | 3.0 | 12.0 | 0.00 | 0.13 | 0.13 | 68 | 1010.3 |
| 20260903214015 | 84 | 107 | 3.0 | 9.0 | 0.00 | 0.13 | 0.13 | 67 | 1010.4 |
| 20260903213516 | 84 | 119 | 3.0 | 8.0 | 0.00 | 0.13 | 0.13 | 66 | 1010.5 |
| 20260903213031 | 84 | 61 | 1.0 | 7.0 | 0.00 | 0.13 | 0.13 | 66 | 1010.6 |
| 20260903212514 | 85 | 132 | 2.0 | 9.0 | 0.00 | 0.13 | 0.13 | 65 | 1010.6 |
| 20260903212019 | 85 | 130 | 2.0 | 9.0 | 0.00 | 0.13 | 0.13 | 65 | 1010.6 |
| 20260903211533 | 84 | 121 | 2.0 | 13.0 | 0.00 | 0.13 | 0.13 | 66 | 1010.6 |
| 20260903211012 | 84 | 110 | 2.0 | 13.0 | 0.00 | 0.13 | 0.13 | 65 | 1010.4 |
| 20260903210514 | 84 | 92 | 4.0 | 11.0 | 0.00 | 0.13 | 0.13 | 64 | 1010.3 |
| 20260903210034 | 85 | 240 | 2.0 | 12.0 | 0.00 | 0.13 | 0.13 | 63 | 1010.3 |
| 20260903205518 | 85 | 138 | 2.0 | 12.0 | 0.00 | 0.13 | 0.13 | 63 | 1010.2 |
| 20260903205015 | 85 | 136 | 4.0 | 11.0 | 0.00 | 0.13 | 0.13 | 62 | 1010.3 |
| 20260903204530 | 85 | 78 | 3.0 | 11.0 | 0.00 | 0.13 | 0.13 | 62 | 1010.5 |
| 20260903204015 | 85 | 146 | 5.0 | 11.0 | 0.00 | 0.13 | 0.13 | 61 | 1010.1 |
| 20260903203517 | 85 | 138 | 2.0 | 11.0 | 0.00 | 0.13 | 0.13 | 61 | 1010.2 |
| 20260903203027 | 85 | 92 | 3.0 | 11.0 | 0.00 | 0.13 | 0.13 | 62 | 1010.4 |
| 20260903202515 | 85 | 191 | 3.0 | 12.0 | 0.00 | 0.13 | 0.13 | 62 | 1010.7 |
| 20260903202018 | 85 | 186 | 2.0 | 12.0 | 0.00 | 0.13 | 0.13 | 63 | 1010.9 |
| 20260903201527 | 84 | 147 | 3.0 | 10.0 | 0.00 | 0.13 | 0.13 | 62 | 1010.9 |
| 20260903201003 | 84 | 121 | 3.0 | 11.0 | 0.00 | 0.13 | 0.13 | 63 | 1010.9 |
| 20260903200510 | 84 | 128 | 4.0 | 11.0 | 0.00 | 0.13 | 0.13 | 64 | 1010.9 |
| 20260903200009 | 83 | 123 | 2.0 | 9.0 | 0.00 | 0.13 | 0.13 | 65 | 1010.8 |
| 20260903195504 | 82 | 125 | 3.0 | 11.0 | 0.00 | 0.13 | 0.13 | 65 | 1010.9 |
| 20260903195006 | 82 | 138 | 3.0 | 11.0 | 0.00 | 0.13 | 0.13 | 65 | 1010.9 |
| 20260903194533 | 82 | 165 | 3.0 | 12.0 | 0.00 | 0.13 | 0.13 | 65 | 1011.0 |
| 20260903194002 | 82 | 142 | 3.0 | 13.0 | 0.00 | 0.13 | 0.13 | 64 | 1011.0 |
| 20260903193502 | 83 | 162 | 4.0 | 13.0 | 0.00 | 0.13 | 0.13 | 63 | 1011.0 |
| 20260903193003 | 82 | 135 | 3.0 | 9.0 | 0.00 | 0.13 | 0.13 | 65 | 1011.2 |
| 20260903192502 | 82 | 198 | 3.0 | 9.0 | 0.00 | 0.13 | 0.13 | 64 | 1011.1 |
| 20260903192003 | 83 | 162 | 3.0 | 8.0 | 0.00 | 0.13 | 0.13 | 64 | 1011.2 |
| 20260903191505 | 83 | 121 | 2.0 | 7.0 | 0.00 | 0.13 | 0.13 | 63 | 1011.4 |
| 20260903191003 | 83 | 123 | 2.0 | 9.0 | 0.00 | 0.13 | 0.13 | 64 | 1011.5 |
| 20260903190505 | 83 | 145 | 4.0 | 9.0 | 0.00 | 0.13 | 0.13 | 63 | 1011.7 |
| 20260903190007 | 83 | 151 | 2.0 | 8.0 | 0.00 | 0.13 | 0.13 | 63 | 1011.5 |
| 20260903185507 | 83 | 194 | 4.0 | 9.0 | 0.00 | 0.13 | 0.13 | 62 | 1011.5 |
| 20260903185002 | 84 | 220 | 2.0 | 10.0 | 0.00 | 0.13 | 0.13 | 62 | 1011.5 |
| 20260903184504 | 84 | 163 | 4.0 | 10.0 | 0.00 | 0.13 | 0.13 | 60 | 1011.6 |
| 20260903184009 | 84 | 157 | 3.0 | 9.0 | 0.00 | 0.13 | 0.13 | 62 | 1011.6 |
| 20260903183510 | 84 | 156 | 2.0 | 10.0 | 0.00 | 0.13 | 0.13 | 63 | 1011.5 |
| 20260903183003 | 83 | 210 | 1.0 | 10.0 | 0.00 | 0.13 | 0.13 | 65 | 1011.5 |
| 20260903182507 | 84 | 135 | 4.0 | 12.0 | 0.00 | 0.13 | 0.13 | 61 | 1011.7 |
| 20260903182003 | 84 | 150 | 3.0 | 12.0 | 0.00 | 0.13 | 0.13 | 62 | 1011.7 |
| 20260903181503 | 83 | 125 | 1.0 | 9.0 | 0.00 | 0.13 | 0.13 | 65 | 1011.9 |
| 20260903181005 | 82 | 170 | 2.0 | 10.0 | 0.00 | 0.13 | 0.13 | 65 | 1011.9 |
| 20260903180505 | 81 | 153 | 4.0 | 10.0 | 0.00 | 0.13 | 0.13 | 67 | 1012.0 |
| 20260903180007 | 81 | 145 | 2.0 | 9.0 | 0.00 | 0.13 | 0.13 | 68 | 1012.0 |
| 20260903175502 | 82 | 130 | 1.0 | 7.0 | 0.00 | 0.13 | 0.13 | 67 | 1012.0 |
| 20260903175004 | 81 | 155 | 0.0 | 7.0 | 0.00 | 0.13 | 0.13 | 68 | 1012.0 |
| 20260903174519 | 80 | 132 | 3.0 | 8.0 | 0.00 | 0.13 | 0.13 | 71 | 1011.9 |
| 20260903174011 | 79 | 125 | 2.0 | 8.0 | 0.00 | 0.13 | 0.13 | 71 | 1011.9 |
| 20260903173503 | 79 | 269 | 1.0 | 9.0 | 0.00 | 0.13 | 0.13 | 70 | 1011.9 |
| 20260903173011 | 80 | 123 | 2.0 | 9.0 | 0.00 | 0.13 | 0.13 | 69 | 1012.0 |
| 20260903172513 | 80 | 147 | 0.0 | 7.0 | 0.00 | 0.13 | 0.13 | 70 | 1012.0 |
| 20260903172002 | 81 | 152 | 1.0 | 7.0 | 0.00 | 0.13 | 0.13 | 68 | 1011.9 |
| 20260903171514 | 82 | 173 | 3.0 | 7.0 | 0.00 | 0.13 | 0.13 | 66 | 1011.6 |
| 20260903171003 | 81 | 90 | 1.0 | 8.0 | 0.00 | 0.13 | 0.13 | 69 | 1011.7 |
| 20260903170505 | 80 | 169 | 3.0 | 8.0 | 0.00 | 0.13 | 0.13 | 69 | 1011.7 |
| 20260903170012 | 80 | 117 | 1.0 | 8.0 | 0.00 | 0.13 | 0.13 | 71 | 1011.8 |
| 20260903165503 | 79 | 185 | 2.0 | 8.0 | 0.00 | 0.13 | 0.13 | 73 | 1011.9 |
| 20260903165003 | 80 | 171 | 3.0 | 7.0 | 0.00 | 0.13 | 0.13 | 71 | 1011.9 |
| 20260903164511 | 80 | 138 | 1.0 | 9.0 | 0.00 | 0.13 | 0.13 | 72 | 1011.9 |
| 20260903164006 | 80 | 117 | 2.0 | 9.0 | 0.00 | 0.13 | 0.13 | 70 | 1011.8 |
| 20260903163511 | 80 | 156 | 2.0 | 6.0 | 0.00 | 0.13 | 0.13 | 73 | 1011.5 |
| 20260903163018 | 79 | 162 | 1.0 | 7.0 | 0.00 | 0.13 | 0.13 | 74 | 1011.5 |
| 20260903162504 | 77 | 169 | 2.0 | 7.0 | 0.00 | 0.13 | 0.13 | 77 | 1011.4 |
| 20260903162006 | 77 | 132 | 2.0 | 6.0 | 0.00 | 0.13 | 0.13 | 78 | 1011.5 |
| 20260903161524 | 77 | 151 | 2.0 | 6.0 | 0.00 | 0.13 | 0.13 | 78 | 1011.5 |
| 20260903161012 | 77 | 154 | 2.0 | 7.0 | 0.00 | 0.13 | 0.13 | 78 | 1011.5 |
| 20260903160503 | 78 | 117 | 1.0 | 7.0 | 0.00 | 0.13 | 0.13 | 77 | 1011.4 |
| 20260903160018 | 78 | 174 | 1.0 | 6.0 | 0.00 | 0.13 | 0.13 | 79 | 1011.5 |
| 20260903155511 | 77 | 124 | 2.0 | 6.0 | 0.00 | 0.13 | 0.13 | 80 | 1011.5 |
| 20260903155004 | 76 | 132 | 1.0 | 7.0 | 0.00 | 0.13 | 0.13 | 82 | 1011.5 |
| 20260903154509 | 75 | 113 | 2.0 | 7.0 | 0.00 | 0.13 | 0.13 | 82 | 1011.6 |
| 20260903154005 | 74 | 142 | 2.0 | 7.0 | 0.00 | 0.13 | 0.13 | 84 | 1011.8 |
| 20260903153507 | 73 | 121 | 1.0 | 4.0 | 0.00 | 0.13 | 0.13 | 86 | 1011.9 |
| 20260903153008 | 72 | 132 | 0.0 | 6.0 | 0.00 | 0.13 | 0.13 | 86 | 1012.1 |
| 20260903152507 | 71 | 141 | 1.0 | 6.0 | 0.00 | 0.13 | 0.13 | 87 | 1012.1 |
| 20260903152009 | 71 | 207 | 0.0 | 7.0 | 0.01 | 0.13 | 0.13 | 88 | 1012.2 |
| 20260903151515 | 71 | 138 | 2.0 | 7.0 | 0.01 | 0.13 | 0.13 | 88 | 1012.0 |
| 20260903151008 | 71 | 123 | 2.0 | 6.0 | 0.01 | 0.13 | 0.13 | 89 | 1012.0 |
| 20260903150512 | 70 | 148 | 0.0 | 6.0 | 0.01 | 0.13 | 0.13 | 90 | 1012.0 |
| 20260903150025 | 70 | 144 | 2.0 | 5.0 | 0.01 | 0.13 | 0.13 | 90 | 1011.8 |
| 20260903145502 | 70 | 82 | 1.0 | 4.0 | 0.01 | 0.13 | 0.13 | 90 | 1011.8 |
| 20260903145010 | 70 | 102 | 0.0 | 3.0 | 0.01 | 0.13 | 0.13 | 90 | 1011.8 |
| 20260903144527 | 70 | 139 | 1.0 | 3.0 | 0.01 | 0.13 | 0.13 | 90 | 1012.0 |
| 20260903144014 | 70 | 122 | 0.0 | 2.0 | 0.01 | 0.13 | 0.13 | 89 | 1012.0 |
| 20260903143503 | 70 | 118 | 0.0 | 2.0 | 0.01 | 0.13 | 0.13 | 89 | 1012.2 |
| 20260903143008 | 70 | 102 | 0.0 | 2.0 | 0.01 | 0.13 | 0.13 | 89 | 1012.2 |
| 20260903142506 | 70 | 86 | 0.0 | 2.0 | 0.01 | 0.13 | 0.13 | 89 | 1012.3 |
| 20260903142011 | 70 | 150 | 0.0 | 3.0 | 0.00 | 0.12 | 0.12 | 89 | 1012.3 |
| 20260903141515 | 71 | 235 | 0.0 | 3.0 | 0.00 | 0.12 | 0.12 | 89 | 1012.1 |
| 20260903141010 | 70 | 151 | 1.0 | 3.0 | 0.00 | 0.12 | 0.12 | 90 | 1011.9 |
| 20260903140512 | 71 | 113 | 0.0 | 3.0 | 0.00 | 0.12 | 0.12 | 90 | 1011.8 |
| 20260903140015 | 71 | 144 | 0.0 | 3.0 | 0.00 | 0.12 | 0.12 | 90 | 1011.8 |
| 20260903135512 | 71 | 173 | 0.0 | 3.0 | 0.00 | 0.12 | 0.12 | 90 | 1012.1 |
| 20260903135015 | 70 | 117 | 0.0 | 3.0 | 0.00 | 0.12 | 0.12 | 91 | 1011.8 |
| 20260903134507 | 70 | 87 | 0.0 | 3.0 | 0.00 | 0.12 | 0.12 | 91 | 1011.6 |
| 20260903134010 | 70 | 25 | 0.0 | 2.0 | 0.00 | 0.12 | 0.12 | 91 | 1011.8 |
| 20260903133513 | 70 | 107 | 0.0 | 4.0 | 0.00 | 0.12 | 0.12 | 91 | 1012.0 |
| 20260903133027 | 70 | 162 | 0.0 | 4.0 | 0.00 | 0.12 | 0.12 | 91 | 1012.2 |
| 20260903132507 | 70 | 108 | 0.0 | 3.0 | 0.00 | 0.12 | 0.12 | 91 | 1012.6 |
| 20260903132007 | 70 | 111 | 1.0 | 3.0 | 0.00 | 0.12 | 0.12 | 91 | 1012.9 |
| 20260903131519 | 70 | 140 | 0.0 | 2.0 | 0.00 | 0.12 | 0.12 | 91 | 1012.9 |
| 20260903131007 | 70 | 81 | 0.0 | 2.0 | 0.00 | 0.12 | 0.12 | 91 | 1013.0 |
| 20260903130509 | 70 | 81 | 0.0 | 6.0 | 0.00 | 0.12 | 0.12 | 90 | 1012.8 |
| 20260903130015 | 69 | 145 | 0.0 | 6.0 | 0.00 | 0.12 | 0.12 | 90 | 1012.8 |
| 20260903125511 | 70 | 117 | 1.0 | 3.0 | 0.01 | 0.12 | 0.12 | 90 | 1012.5 |
| 20260903125006 | 70 | 132 | 1.0 | 3.0 | 0.01 | 0.12 | 0.12 | 90 | 1012.6 |
| 20260903124539 | 70 | 131 | 0.0 | 2.0 | 0.02 | 0.12 | 0.12 | 90 | 1013.1 |
| 20260903124011 | 69 | 101 | 0.0 | 2.0 | 0.02 | 0.12 | 0.12 | 90 | 1013.1 |
| 20260903123515 | 69 | 208 | 0.0 | 3.0 | 0.02 | 0.12 | 0.12 | 90 | 1013.1 |
| 20260903123013 | 69 | 207 | 0.0 | 4.0 | 0.03 | 0.12 | 0.12 | 89 | 1013.2 |
| 20260903122512 | 69 | 197 | 1.0 | 4.0 | 0.04 | 0.12 | 0.12 | 89 | 1013.2 |
| 20260903122016 | 70 | 200 | 0.0 | 4.0 | 0.04 | 0.12 | 0.12 | 89 | 1013.5 |
| 20260903121527 | 70 | 238 | 0.0 | 4.0 | 0.05 | 0.12 | 0.12 | 89 | 1013.5 |
| 20260903121012 | 70 | 191 | 0.0 | 2.0 | 0.05 | 0.12 | 0.12 | 89 | 1013.6 |
| 20260903120514 | 70 | 215 | 0.0 | 3.0 | 0.06 | 0.12 | 0.12 | 89 | 1013.4 |
| 20260903120017 | 70 | 271 | 0.0 | 3.0 | 0.06 | 0.12 | 0.12 | 89 | 1013.2 |
| 20260903115508 | 70 | 194 | 0.0 | 3.0 | 0.05 | 0.11 | 0.11 | 89 | 1013.1 |
| 20260903115010 | 70 | 250 | 1.0 | 4.0 | 0.06 | 0.12 | 0.11 | 89 | 1013.0 |
| 20260903114523 | 70 | 104 | 0.0 | 5.0 | 0.05 | 0.11 | 0.10 | 89 | 1012.5 |
| 20260903114014 | 70 | 94 | 1.0 | 6.0 | 0.06 | 0.11 | 0.10 | 89 | 1012.3 |
| 20260903113511 | 70 | 101 | 1.0 | 6.0 | 0.07 | 0.11 | 0.10 | 89 | 1012.4 |
| 20260903113030 | 70 | 138 | 2.0 | 4.0 | 0.07 | 0.10 | 0.09 | 89 | 1012.6 |
| 20260903112513 | 70 | 118 | 1.0 | 4.0 | 0.08 | 0.09 | 0.08 | 89 | 1012.8 |
| 20260903112011 | 71 | 130 | 0.0 | 2.0 | 0.08 | 0.09 | 0.08 | 88 | 1013.1 |
| 20260903111524 | 71 | 130 | 0.0 | 2.0 | 0.07 | 0.08 | 0.07 | 88 | 1013.1 |
| 20260903111005 | 71 | 102 | 0.0 | 3.0 | 0.07 | 0.08 | 0.07 | 88 | 1013.0 |
| 20260903110506 | 71 | 229 | 0.0 | 4.0 | 0.06 | 0.07 | 0.06 | 88 | 1013.0 |
| 20260903110009 | 71 | 237 | 0.0 | 4.0 | 0.06 | 0.07 | 0.06 | 87 | 1012.8 |
| 20260903105504 | 71 | 137 | 0.0 | 9.0 | 0.06 | 0.07 | 0.06 | 87 | 1012.7 |
| 20260903105004 | 72 | 126 | 1.0 | 9.0 | 0.05 | 0.06 | 0.05 | 87 | 1012.9 |
| 20260903104510 | 72 | 182 | 0.0 | 6.0 | 0.05 | 0.06 | 0.05 | 86 | 1013.0 |
| 20260903104004 | 72 | 174 | 2.0 | 7.0 | 0.04 | 0.05 | 0.04 | 86 | 1013.0 |
| 20260903103508 | 72 | 182 | 3.0 | 7.0 | 0.03 | 0.04 | 0.03 | 86 | 1012.8 |
| 20260903103002 | 72 | 83 | 1.0 | 7.0 | 0.02 | 0.03 | 0.02 | 86 | 1012.6 |
| 20260903102502 | 73 | 119 | 2.0 | 10.0 | 0.00 | 0.01 | 0.00 | 85 | 1012.9 |
| 20260903102001 | 73 | 239 | 3.0 | 11.0 | 0.00 | 0.01 | 0.00 | 85 | 1013.0 |
| 20260903101503 | 73 | 204 | 4.0 | 12.0 | 0.00 | 0.01 | 0.00 | 86 | 1013.2 |
| 20260903101003 | 73 | 229 | 2.0 | 12.0 | 0.00 | 0.02 | 0.00 | 87 | 1013.4 |
| 20260903100503 | 72 | 256 | 3.0 | 11.0 | 0.00 | 0.04 | 0.00 | 88 | 1013.4 |
| 20260903100019 | 72 | 205 | 4.0 | 11.0 | 0.00 | 0.04 | 0.00 | 88 | 1013.3 |
| 20260903095509 | 72 | 209 | 4.0 | 9.0 | 0.00 | 0.04 | 0.00 | 89 | 1013.1 |
| 20260903095010 | 72 | 253 | 4.0 | 9.0 | 0.00 | 0.04 | 0.00 | 90 | 1012.3 |
| 20260903094505 | 72 | 231 | 2.0 | 5.0 | 0.00 | 0.04 | 0.00 | 90 | 1012.2 |
| 20260903094006 | 72 | 227 | 0.0 | 3.0 | 0.00 | 0.04 | 0.00 | 90 | 1011.9 |
| 20260903093506 | 71 | 221 | 0.0 | 0.0 | 0.00 | 0.04 | 0.00 | 89 | 1011.8 |
| 20260903093010 | 71 | 131 | 0.0 | 1.0 | 0.00 | 0.04 | 0.00 | 89 | 1011.7 |
| 20260903092503 | 71 | 131 | 0.0 | 2.0 | 0.00 | 0.04 | 0.00 | 89 | 1011.6 |
| 20260903092007 | 71 | 131 | 0.0 | 2.0 | 0.00 | 0.04 | 0.00 | 89 | 1011.7 |
| 20260903091515 | 71 | 131 | 0.0 | 2.0 | 0.00 | 0.04 | 0.00 | 89 | 1011.6 |
| 20260903091003 | 71 | 136 | 0.0 | 2.0 | 0.00 | 0.04 | 0.00 | 89 | 1011.5 |
| 20260903090503 | 71 | 132 | 0.0 | 0.0 | 0.00 | 0.04 | 0.00 | 89 | 1011.3 |
| 20260903090011 | 71 | 132 | 0.0 | 0.0 | 0.00 | 0.04 | 0.00 | 88 | 1011.3 |
| 20260903085502 | 71 | 132 | 0.0 | 0.0 | 0.00 | 0.04 | 0.00 | 89 | 1011.4 |
| 20260903085004 | 71 | 132 | 0.0 | 0.0 | 0.00 | 0.04 | 0.00 | 89 | 1011.3 |
| 20260903084513 | 71 | 132 | 0.0 | 0.0 | 0.00 | 0.04 | 0.00 | 88 | 1011.5 |
| 20260903084012 | 71 | 132 | 0.0 | 0.0 | 0.00 | 0.04 | 0.00 | 88 | 1011.6 |
| 20260903083502 | 71 | 107 | 0.0 | 0.0 | 0.00 | 0.04 | 0.00 | 88 | 1011.4 |
| 20260903083012 | 71 | 107 | 0.0 | 0.0 | 0.00 | 0.04 | 0.00 | 88 | 1011.2 |
| 20260903082509 | 72 | 107 | 0.0 | 1.0 | 0.00 | 0.04 | 0.00 | 88 | 1011.3 |
| 20260903082009 | 72 | 107 | 0.0 | 3.0 | 0.00 | 0.04 | 0.00 | 88 | 1011.4 |
| 20260903081504 | 72 | 107 | 0.0 | 3.0 | 0.00 | 0.04 | 0.00 | 88 | 1011.4 |
| 20260903081005 | 72 | 163 | 1.0 | 3.0 | 0.00 | 0.04 | 0.00 | 88 | 1011.4 |
| 20260903080508 | 72 | 118 | 0.0 | 2.0 | 0.00 | 0.04 | 0.00 | 88 | 1011.2 |
| 20260903080012 | 72 | 118 | 0.0 | 2.0 | 0.00 | 0.04 | 0.00 | 88 | 1011.2 |
| 20260903075504 | 72 | 118 | 0.0 | 2.0 | 0.00 | 0.04 | 0.00 | 88 | 1011.2 |
| 20260903075002 | 72 | 121 | 0.0 | 2.0 | 0.00 | 0.04 | 0.00 | 88 | 1011.1 |
| 20260903074508 | 72 | 121 | 0.0 | 2.0 | 0.00 | 0.04 | 0.00 | 88 | 1011.2 |
| 20260903074005 | 72 | 121 | 0.0 | 1.0 | 0.00 | 0.04 | 0.00 | 87 | 1011.1 |
| 20260903073505 | 72 | 121 | 0.0 | 1.0 | 0.00 | 0.04 | 0.00 | 87 | 1011.1 |
| 20260903073015 | 72 | 121 | 0.0 | 1.0 | 0.00 | 0.04 | 0.00 | 87 | 1011.2 |
| 20260903072508 | 72 | 121 | 0.0 | 3.0 | 0.00 | 0.04 | 0.00 | 87 | 1011.2 |
| 20260903072007 | 72 | 121 | 1.0 | 3.0 | 0.00 | 0.04 | 0.00 | 87 | 1011.3 |
| 20260903071520 | 72 | 120 | 1.0 | 3.0 | 0.00 | 0.04 | 0.00 | 88 | 1011.3 |
| 20260903071011 | 72 | 107 | 0.0 | 3.0 | 0.00 | 0.04 | 0.00 | 88 | 1011.3 |
| 20260903070507 | 72 | 113 | 0.0 | 3.0 | 0.00 | 0.04 | 0.00 | 88 | 1011.3 |
| 20260903070014 | 72 | 103 | 0.0 | 3.0 | 0.00 | 0.04 | 0.00 | 88 | 1011.4 |
| 20260903065511 | 72 | 98 | 0.0 | 3.0 | 0.00 | 0.06 | 0.00 | 88 | 1011.5 |
| 20260903065012 | 72 | 131 | 0.0 | 3.0 | 0.00 | 0.07 | 0.00 | 88 | 1011.5 |
| 20260903064510 | 72 | 131 | 1.0 | 3.0 | 0.00 | 0.09 | 0.00 | 88 | 1011.6 |
| 20260903064011 | 72 | 90 | 0.0 | 2.0 | 0.00 | 0.23 | 0.00 | 87 | 1011.5 |
| 20260903063504 | 72 | 90 | 0.0 | 1.0 | 0.00 | 0.52 | 0.00 | 87 | 1011.5 |
| 20260903063011 | 72 | 90 | 0.0 | 0.0 | 0.00 | 0.65 | 0.00 | 87 | 1011.5 |
| 20260903062507 | 72 | 90 | 0.0 | 0.0 | 0.00 | 0.65 | 0.00 | 87 | 1011.6 |
| 20260903062006 | 73 | 90 | 0.0 | 1.0 | 0.00 | 0.65 | 0.00 | 86 | 1011.6 |
| 20260903061519 | 73 | 90 | 0.0 | 1.0 | 0.00 | 0.65 | 0.00 | 86 | 1011.6 |
| 20260903061005 | 73 | 90 | 0.0 | 2.0 | 0.00 | 0.65 | 0.00 | 86 | 1011.7 |
| 20260903060510 | 73 | 90 | 0.0 | 2.0 | 0.00 | 0.65 | 0.00 | 87 | 1011.7 |
| 20260903060020 | 73 | 121 | 0.0 | 2.0 | 0.00 | 0.65 | 0.00 | 86 | 1011.7 |
| 20260903055514 | 73 | 121 | 0.0 | 1.0 | 0.00 | 0.65 | 0.00 | 86 | 1011.8 |
| 20260903055009 | 73 | 121 | 0.0 | 1.0 | 0.00 | 0.65 | 0.00 | 86 | 1011.8 |
| 20260903054524 | 73 | 121 | 0.0 | 2.0 | 0.00 | 0.65 | 0.00 | 86 | 1011.8 |
| 20260903054015 | 73 | 121 | 0.0 | 3.0 | 0.00 | 0.65 | 0.00 | 86 | 1011.9 |
| 20260903053508 | 73 | 121 | 1.0 | 3.0 | 0.00 | 0.65 | 0.00 | 86 | 1011.8 |
| 20260903053017 | 73 | 144 | 1.0 | 2.0 | 0.00 | 0.65 | 0.00 | 86 | 1011.9 |
| 20260903052511 | 73 | 131 | 1.0 | 2.0 | 0.00 | 0.65 | 0.00 | 86 | 1011.9 |
| 20260903052007 | 73 | 132 | 0.0 | 0.0 | 0.00 | 0.65 | 0.00 | 86 | 1011.9 |
| 20260903051513 | 73 | 132 | 0.0 | 2.0 | 0.00 | 0.65 | 0.00 | 86 | 1012.0 |
| 20260903051012 | 73 | 132 | 0.0 | 2.0 | 0.00 | 0.65 | 0.00 | 86 | 1011.9 |
| 20260903050510 | 73 | 132 | 0.0 | 2.0 | 0.00 | 0.65 | 0.00 | 86 | 1011.9 |
| 20260903050018 | 74 | 132 | 0.0 | 2.0 | 0.00 | 0.65 | 0.00 | 86 | 1012.0 |
| 20260903045512 | 74 | 132 | 0.0 | 2.0 | 0.00 | 0.65 | 0.65 | 86 | 1011.9 |
| 20260903045012 | 74 | 132 | 0.0 | 2.0 | 0.00 | 0.65 | 0.65 | 86 | 1011.9 |
| 20260903044524 | 74 | 150 | 0.0 | 2.0 | 0.00 | 0.65 | 0.65 | 87 | 1011.9 |
| 20260903044010 | 74 | 157 | 0.0 | 3.0 | 0.00 | 0.67 | 0.65 | 87 | 1011.9 |
| 20260903043513 | 73 | 159 | 0.0 | 3.0 | 0.00 | 0.67 | 0.65 | 87 | 1011.9 |
| 20260903043025 | 73 | 126 | 0.0 | 2.0 | 0.00 | 0.67 | 0.65 | 87 | 1011.9 |
| 20260903042514 | 73 | 211 | 0.0 | 2.0 | 0.00 | 0.67 | 0.65 | 87 | 1011.9 |
| 20260903042010 | 73 | 211 | 0.0 | 2.0 | 0.00 | 0.67 | 0.65 | 86 | 1012.0 |
| 20260903041525 | 73 | 211 | 0.0 | 2.0 | 0.00 | 0.67 | 0.65 | 86 | 1012.0 |
| 20260903041015 | 73 | 211 | 0.0 | 1.0 | 0.00 | 0.67 | 0.65 | 86 | 1012.0 |
| 20260903040506 | 73 | 211 | 0.0 | 1.0 | 0.00 | 0.67 | 0.65 | 86 | 1012.0 |